GFSFLT2_con_3kmhel_000.txt.gz
Helicity
2 3 12 18 36 42 35 34 36 41 47 57 70 79 99 85 74 73 62 74 68 68 95 78 81 84 85 90 79 52 14 31
16 10 28 42 57 85 71 67 49 35 33 46 69 90 88 90 85 65 78 65 61 55 65 72 116 144 130 113 106 87 51 49
34 36 53 67 78 90 47 55 48 34 37 67 57 118 162 238 294 276 272 82 59 77 75 81 104 117 114 108 93 125 133 105
62 75 84 77 83 64 65 68 86 101 80 63 59 84 109 139 105 172 242 320 227 59 83 84 64 79 77 62 91 113 86 80
91 87 89 74 83 59 76 81 78 87 81 69 75 85 77 84 61 31 -133 0 -30 192 51 64 91 66 73 68 83 106 128 90
87 88 73 72 55 73 75 80 81 68 56 36 30 41 37 79 123 189 153 76 -55 -4 -51 -20 222 38 69 91 64 103 158 187
86 57 69 62 60 69 81 77 77 60 53 55 49 58 69 62 58 44 67 -29 -59 -41 -9 -22 24 38 71 84 67 63 73 180
50 68 70 70 81 91 91 94 85 83 79 79 80 67 60 66 67 56 64 56 4 12 31 57 -20 51 4 20 39 57 78 103
83 88 93 86 89 93 100 103 98 90 76 81 89 75 77 80 81 79 85 93 76 97 78 40 -2 -4 20 64 64 55 51 91
101 109 114 127 132 130 134 127 120 114 98 91 89 92 80 71 76 93 91 95 105 130 123 132 104 115 74 57 72 56 48 43
144 146 150 163 176 180 179 164 157 138 109 85 66 69 73 75 74 78 74 89 96 112 112 106 100 104 103 80 151 145 87 101
169 164 175 177 171 168 154 146 139 112 86 63 24 28 27 65 66 51 53 69 77 98 114 119 108 107 90 72 85 104 112 122
177 181 176 164 154 152 155 164 148 112 68 33 6 35 36 32 45 50 39 58 76 88 99 123 142 119 90 118 100 109 117 191
187 180 183 172 174 197 203 186 155 117 77 37 7 7 14 11 23 36 61 74 79 98 100 96 97 109 127 130 112 155 147 164
167 200 197 196 223 207 184 161 127 77 35 11 27 8 -3 16 25 11 22 30 63 89 106 115 143 116 69 139 168 229 203 179
176 197 202 206 202 198 158 129 101 83 88 88 66 65 44 28 28 18 17 31 45 44 62 99 119 164 139 80 81 142 176 142
118 146 178 201 184 132 112 85 66 66 88 108 99 81 81 80 77 81 71 67 63 67 62 56 67 101 123 141 124 86 113 190
117 160 177 181 181 144 121 112 98 112 126 124 117 99 124 122 139 152 143 141 131 123 104 84 73 65 74 92 151 168 158 160
196 204 189 187 197 198 184 179 190 183 185 175 184 183 185 180 183 161 172 179 169 158 147 135 127 110 88 86 87 118 138 157
200 221 200 223 255 256 270 237 207 211 200 213 193 205 187 171 153 136 132 133 133 130 145 157 149 168 127 126 124 118 107 119

GFSFLT2_con_3kmhel_006.txt.gz
Helicity
59 58 21 14 12 25 33 39 50 51 55 43 51 67 123 123 144 182 210 222 244 235 169 137 116 134 121 94 82 93 84 64
88 38 39 20 18 14 43 42 55 54 60 59 43 90 94 105 122 157 184 196 198 248 306 309 194 157 110 124 97 96 88 85
92 102 105 85 57 78 70 49 36 31 38 38 23 29 27 65 118 99 121 138 126 156 189 210 248 269 227 137 154 100 88 109
87 62 83 62 52 118 131 108 60 30 38 16 22 69 84 83 85 86 74 66 94 165 186 159 192 199 254 257 225 199 130 97
83 69 72 96 160 108 75 34 37 50 68 72 59 47 48 44 42 51 57 70 58 61 70 103 180 351 213 149 206 189 250 180
105 91 105 97 96 153 150 131 91 113 89 77 65 47 59 51 65 56 57 55 52 63 76 73 63 138 75 54 93 91 147 142
117 100 75 59 117 140 157 157 159 124 110 101 109 107 103 80 97 79 87 79 73 73 73 77 76 65 75 32 -120 98 79 120
125 85 66 82 125 130 142 170 153 161 163 140 124 144 122 140 127 125 100 106 99 92 91 85 85 94 83 91 47 19 32 8
138 100 118 121 179 160 133 152 166 203 210 193 190 168 160 166 173 170 165 105 95 87 81 92 93 89 72 61 40 68 76 40
152 137 202 160 174 204 172 225 156 184 202 192 180 172 160 146 158 166 134 98 103 105 104 101 94 101 98 57 34 47 40 38
172 187 182 198 207 191 261 314 189 200 252 204 181 180 164 155 170 169 124 108 98 93 110 105 106 106 110 96 56 29 38 45
190 214 198 225 226 199 299 249 173 307 242 257 245 217 183 166 164 133 92 86 100 103 78 107 112 95 86 78 78 96 99 84
166 159 181 245 206 247 217 250 197 221 176 258 267 209 172 153 148 195 140 124 145 89 89 95 94 122 121 49 37 120 122 125
149 117 152 236 194 198 161 180 185 224 224 274 312 192 202 192 139 142 133 157 125 102 85 95 83 93 114 94 -13 -11 142 174
103 119 124 190 221 128 198 249 213 279 311 320 295 185 179 153 158 162 142 133 112 103 83 69 77 87 95 95 69 17 -29 82
166 80 113 127 235 260 148 258 318 222 177 184 182 221 168 162 170 162 188 215 183 132 100 101 90 82 89 83 99 102 34 -71
194 149 110 110 153 275 353 294 288 271 251 250 275 292 325 341 299 310 204 239 269 193 164 124 103 95 91 85 85 75 78 58
165 199 168 167 192 199 348 415 356 333 288 347 395 376 374 431 400 372 322 279 253 233 184 156 143 136 132 113 94 88 77 75
182 268 285 246 227 219 283 394 432 333 297 363 393 470 423 370 352 375 232 212 173 146 142 158 165 158 133 119 106 98 92 84
154 166 194 247 275 311 373 406 461 429 388 402 514 439 342 322 210 248 179 173 141 121 129 143 142 144 116 110 105 104 101 98

GFSFLT2_con_3kmhel_009.txt.gz
Helicity
13 22 9 4 9 4 19 33 53 61 80 97 87 92 92 97 115 125 141 143 168 166 81 72 83 118 104 57 24 70 61 66
61 79 26 8 -8 -23 -7 20 46 60 71 83 82 69 71 79 94 102 110 134 136 140 142 157 147 122 127 142 137 116 110 66
134 144 100 49 79 52 54 62 64 60 52 61 73 45 39 62 80 90 106 121 119 123 135 125 133 130 105 121 181 203 202 174
84 75 71 52 105 125 145 104 61 50 58 52 52 64 59 64 71 73 75 77 96 94 100 127 114 63 73 103 156 174 199 231
92 60 19 89 131 115 120 123 84 93 121 107 101 90 95 87 72 48 44 43 52 75 63 42 66 111 109 152 219 170 193 177
96 76 72 101 128 141 153 128 153 142 123 129 102 113 101 122 123 95 75 73 83 70 70 56 47 59 68 80 59 47 88 94
127 101 102 104 122 156 181 203 188 174 158 163 183 153 144 149 130 131 135 107 105 90 74 67 66 55 59 71 64 68 12 8
165 129 112 94 120 138 183 216 204 225 201 168 199 184 179 157 146 135 167 162 152 133 116 98 69 63 65 53 51 56 36 70
189 130 115 114 150 149 161 181 207 237 219 201 213 188 194 216 203 219 173 150 136 133 126 116 109 86 71 70 46 27 35 22
233 146 146 132 150 155 166 168 192 199 194 186 179 184 179 214 220 213 193 204 172 158 150 144 118 102 87 82 81 73 51 44
293 257 219 164 172 191 177 215 216 193 237 191 157 168 187 227 232 189 174 167 165 151 130 94 88 91 93 93 89 64 57 60
313 280 236 210 212 210 239 257 239 212 270 271 205 184 171 204 227 184 158 155 161 125 92 67 56 58 57 77 79 68 100 89
243 245 185 220 234 238 217 228 194 192 212 240 291 248 190 168 189 214 191 189 156 110 93 71 75 84 93 71 19 19 53 103
164 162 176 196 228 222 216 196 183 222 211 243 298 319 274 253 203 215 249 248 194 181 142 115 80 78 48 28 5 11 -36 31
191 162 164 214 232 252 243 229 230 274 276 292 319 341 297 280 248 225 227 236 257 226 164 114 109 104 71 50 32 5 -20 -42
143 166 164 159 225 319 310 289 304 314 308 284 278 263 297 294 242 249 266 296 359 335 298 228 151 126 85 84 90 65 -3 -52
100 131 155 143 182 225 288 313 314 324 306 294 287 297 285 268 321 410 431 362 357 295 229 265 163 111 106 91 78 66 50 19
151 164 165 177 213 214 273 298 321 388 391 426 391 428 486 528 547 488 415 357 352 374 235 302 240 134 101 121 115 102 75 48
207 195 185 179 225 251 270 323 353 424 500 538 538 523 526 549 468 440 375 322 404 356 406 333 149 109 122 132 142 134 127 93
251 229 188 166 167 174 203 244 341 418 524 550 608 659 643 663 749 554 480 505 524 324 152 139 122 132 130 149 146 134 116 101

GFSFLT2_con_3kmhel_012.txt.gz
Helicity
40 21 -7 2 12 18 38 66 99 115 119 136 130 122 109 95 86 85 95 112 111 96 58 53 65 48 39 30 52 1 43 42
47 38 -5 -0 19 12 23 43 80 88 85 92 89 96 90 91 93 81 82 84 88 95 89 95 99 106 110 83 67 62 54 83
68 77 65 58 74 77 67 66 50 57 54 93 87 66 54 68 83 90 91 93 82 86 89 98 109 112 59 54 53 52 45 51
122 109 98 100 96 130 91 99 80 54 73 78 66 68 62 73 74 79 69 60 60 64 68 76 87 72 60 71 70 70 68 88
88 76 97 120 101 111 82 100 92 55 76 87 89 97 81 88 88 88 89 65 52 56 63 69 63 58 62 75 95 118 104 128
71 62 97 119 94 88 76 108 102 108 114 131 121 117 108 95 105 99 99 85 78 80 82 77 80 76 65 66 59 67 71 77
76 88 107 129 121 125 148 170 179 177 175 171 156 142 135 124 118 122 117 122 119 110 99 89 76 71 68 69 72 71 82 72
187 135 112 145 115 115 139 169 201 211 190 183 189 173 155 144 151 153 151 139 129 136 137 128 115 105 90 75 76 62 60 49
225 161 136 144 144 121 130 144 197 201 182 185 187 194 196 184 190 177 171 165 167 166 151 142 135 125 108 109 78 66 59 23
224 208 183 144 120 113 119 138 161 170 162 165 159 162 181 217 228 213 184 165 156 152 148 148 139 128 115 107 86 75 66 73
237 215 190 165 143 124 146 149 167 149 151 152 137 141 155 184 186 172 175 188 173 158 149 139 125 117 109 97 86 68 40 43
216 209 195 174 185 205 191 176 184 212 196 177 166 158 141 176 172 163 178 186 165 165 151 135 106 87 74 74 64 55 66 63
164 195 151 211 203 207 205 205 197 207 222 238 230 197 188 199 201 186 197 210 174 169 162 123 102 87 72 82 72 75 46 74
123 126 128 151 203 205 240 239 222 219 203 231 251 267 275 275 261 250 259 273 266 257 234 217 189 127 77 51 34 43 65 40
101 114 128 114 159 205 230 271 280 269 236 256 289 305 341 357 337 343 320 308 321 310 317 321 296 244 182 134 87 33 -0 -9
100 102 129 116 145 201 255 294 298 318 342 351 303 336 353 373 369 363 352 360 381 462 485 447 404 356 282 223 174 111 44 -13
104 90 134 104 142 178 238 300 297 295 320 318 308 341 363 388 430 458 491 512 525 543 544 566 460 433 390 275 164 137 70 79
136 173 138 121 116 155 227 263 270 312 284 325 344 406 508 531 620 701 703 715 748 666 611 499 308 287 388 281 152 89 49 64
263 268 175 137 125 195 160 205 242 246 246 292 376 594 693 662 719 801 810 862 805 736 628 600 320 384 229 279 227 125 104 100
216 206 166 152 188 165 162 190 194 201 208 245 399 533 665 822 885 795 753 568 508 628 653 389 224 229 190 206 142 135 116 109

GFSFLT2_con_3kmhel_015.txt.gz
Helicity
21 29 28 28 32 38 54 69 83 91 79 79 74 63 62 67 78 83 86 84 82 75 69 56 65 61 73 71 69 80 85 52
35 31 33 25 26 44 56 63 66 59 47 70 60 58 59 61 65 65 71 76 86 99 84 67 63 68 79 80 75 77 58 38
31 43 47 60 55 58 28 44 44 31 40 51 52 37 36 47 53 71 83 87 85 89 80 71 64 62 47 76 62 38 35 31
44 64 62 89 70 65 26 31 41 57 60 75 63 58 49 49 57 78 73 72 64 68 71 69 66 46 33 43 28 20 17 29
105 81 79 86 67 67 61 56 52 66 73 77 82 80 75 73 80 78 71 75 62 66 74 77 75 68 60 34 39 43 26 38
131 104 98 110 108 91 75 80 78 80 86 101 114 109 107 107 98 84 79 80 80 82 82 82 85 77 67 61 62 57 53 62
145 131 123 138 145 126 101 89 101 129 138 113 111 113 106 108 109 114 105 113 105 106 102 103 98 96 93 80 80 76 71 60
149 113 126 137 144 147 136 141 150 167 161 140 127 125 122 125 130 136 138 121 109 100 103 108 106 103 97 96 94 80 80 89
160 141 157 136 127 140 149 145 169 178 170 152 143 149 139 136 143 145 130 120 115 116 112 110 114 110 116 110 87 85 84 73
172 153 165 130 109 99 104 116 139 139 142 147 136 135 140 155 160 153 147 139 137 126 114 106 98 98 95 88 77 52 45 47
169 143 156 135 104 100 100 109 120 126 149 149 127 136 141 152 149 141 146 149 146 144 134 126 112 110 102 91 85 78 68 59
139 109 106 121 110 108 117 124 128 145 155 176 165 175 178 173 161 161 176 172 164 173 147 136 133 114 112 101 77 55 59 62
126 98 77 170 141 142 115 155 184 203 185 174 182 193 208 234 226 212 226 221 201 198 196 169 156 151 154 124 99 57 48 73
105 66 67 141 159 157 137 149 170 237 259 233 227 236 248 288 302 289 300 307 268 276 309 295 234 226 203 170 107 117 90 71
74 95 119 127 135 156 168 188 188 229 247 291 295 324 304 338 355 373 387 418 396 387 392 384 340 326 315 282 220 178 117 55
83 90 100 107 138 169 192 229 217 254 246 274 278 334 328 347 367 416 439 489 475 468 488 498 521 501 501 449 450 376 216 111
120 137 141 145 151 149 166 192 222 249 230 224 228 249 292 306 337 392 477 513 490 519 606 730 713 732 664 629 486 460 317 204
246 239 240 257 199 146 132 151 199 205 194 173 176 221 230 262 380 515 575 682 794 783 855 816 715 758 767 545 574 536 427 270
276 265 241 207 162 133 124 148 146 155 175 206 194 201 233 314 478 710 886 871 905 922 961 626 763 777 500 523 468 284 221 231
217 200 178 145 138 149 181 170 176 182 187 193 180 239 364 528 736 846 821 782 885 784 540 556 320 201 155 143 157 170 209 222

GFSFLT2_con_3kmhel_021.txt.gz
Helicity
9 26 30 31 37 45 45 51 59 52 31 19 36 38 40 41 44 50 53 58 64 67 75 81 94 110 110 103 108 115 104 103
9 8 4 8 19 36 41 34 30 29 27 32 35 25 29 35 26 32 33 34 42 57 69 68 67 65 75 74 78 89 108 96
13 16 20 25 35 39 35 35 42 37 33 38 35 31 31 34 45 48 49 48 54 62 69 69 61 63 65 66 56 60 66 73
4 10 25 33 36 37 33 32 35 34 32 37 40 47 46 47 48 55 51 51 59 64 70 69 63 69 68 52 57 53 48 50
18 36 42 36 19 25 31 31 42 48 50 50 59 63 58 55 55 50 48 52 45 50 57 63 68 70 74 75 72 62 63 65
16 30 26 12 14 35 45 47 52 57 62 63 62 61 61 69 75 70 76 71 73 72 67 56 50 55 62 70 75 72 74 69
25 27 33 28 21 25 42 49 49 52 66 81 86 83 86 90 92 93 90 88 86 90 84 75 64 58 59 61 59 65 76 80
36 34 35 40 27 26 32 43 43 46 54 69 81 76 78 83 86 93 103 108 105 108 106 96 84 74 69 68 60 51 62 77
62 48 48 50 37 30 39 50 49 43 47 58 69 80 83 79 79 80 82 102 113 123 121 118 108 101 88 88 81 69 64 60
77 65 63 47 40 40 56 61 65 54 54 54 57 65 83 96 100 92 86 98 105 108 112 112 109 108 103 95 92 91 88 76
101 88 80 65 54 43 69 72 78 70 71 60 45 59 94 126 135 128 120 120 128 132 132 131 121 120 118 117 113 101 92 84
96 96 91 80 79 59 72 80 75 76 81 78 77 89 87 137 162 162 183 185 177 186 181 176 160 136 140 140 139 131 125 116
71 76 75 81 82 81 93 87 72 69 70 75 69 94 94 138 154 154 184 220 222 227 223 206 208 202 225 166 154 142 138 134
37 68 91 75 84 109 114 101 81 70 52 68 63 96 113 146 160 161 155 186 203 235 273 288 272 272 260 202 189 135 143 151
89 86 101 126 130 132 141 143 144 134 121 97 110 114 91 105 114 126 138 169 202 219 251 292 314 286 288 293 236 199 170 164
119 138 169 199 212 219 204 165 133 122 108 114 110 70 77 107 118 108 113 135 153 174 204 240 253 301 320 341 370 344 265 194
204 194 195 191 166 141 123 109 52 11 25 47 48 56 74 99 109 109 111 127 140 157 178 225 243 290 317 351 405 414 424 335
174 184 158 131 113 72 71 64 53 70 60 37 40 68 67 98 119 129 160 180 196 219 267 296 305 338 423 482 559 505 449 502
165 169 98 46 75 49 80 126 128 110 87 56 70 79 94 117 147 179 191 221 253 277 316 346 364 405 427 512 597 627 638 564
45 41 85 113 152 182 156 130 108 83 57 56 77 97 118 163 215 228 248 263 276 270 253 238 270 284 316 330 306 279 241 198

GFSFLT2_con_3kmhel_024.txt.gz
Helicity
20 27 28 6 10 31 39 37 46 56 51 52 53 58 54 51 50 52 59 71 73 77 81 87 91 92 85 77 72 56 44 74
25 25 22 16 34 33 29 25 31 41 38 35 37 38 38 38 36 54 52 50 48 51 53 53 54 58 56 51 33 12 49 64
11 19 17 16 17 33 23 26 26 26 33 35 27 35 38 27 81 49 47 51 52 55 58 56 44 46 48 38 15 41 32 43
15 12 15 13 15 18 20 21 17 20 24 29 28 40 56 53 75 66 62 56 52 53 54 42 24 53 50 25 38 53 29 43
4 7 4 2 9 12 18 18 24 33 30 30 49 42 50 46 54 54 54 62 50 44 47 50 66 61 65 69 71 51 59 51
-2 -6 -2 -1 -1 11 11 13 26 25 32 29 28 28 40 41 48 52 50 62 68 52 64 75 66 62 64 69 71 74 80 79
-3 6 12 13 12 3 0 4 23 29 26 29 26 29 39 42 50 48 54 55 51 53 54 57 61 57 60 61 70 76 88 91
10 21 24 22 14 10 12 23 29 29 27 28 32 25 30 28 31 37 46 59 61 66 66 70 72 74 59 56 59 70 79 90
17 30 36 30 29 34 29 33 38 41 41 41 33 28 28 30 29 33 42 62 63 62 66 74 75 85 83 90 74 70 77 76
18 41 46 50 50 56 46 48 46 47 58 50 37 33 35 39 33 37 50 72 74 67 65 69 70 77 87 91 88 85 86 77
25 47 55 64 71 74 64 61 65 78 77 67 68 55 53 55 53 52 66 89 103 93 82 85 79 83 81 87 98 103 101 91
32 50 65 90 91 86 68 78 81 89 92 92 78 76 72 71 77 68 72 90 98 111 111 119 129 116 120 125 119 119 121 121
58 84 138 121 116 102 100 104 103 101 95 105 83 85 78 78 98 99 105 126 105 90 100 105 125 141 144 163 151 152 158 156
136 144 158 148 117 120 119 114 121 120 100 111 90 98 68 83 97 85 85 108 123 125 119 138 142 146 175 165 169 178 173 134
165 177 171 165 141 132 129 117 122 170 165 126 106 70 57 85 89 90 104 127 130 116 119 117 144 145 167 238 212 241 147 144
159 151 136 136 142 136 139 122 113 133 141 102 72 35 72 67 51 69 82 98 108 117 130 135 149 162 180 225 224 190 215 263
155 148 138 128 122 113 110 114 72 98 127 172 135 103 78 66 70 65 76 112 128 135 132 148 167 179 199 233 263 253 205 279
154 157 138 117 97 74 81 143 116 132 165 131 123 93 71 65 96 83 107 138 145 148 187 230 240 296 329 347 414 445 487 387
105 92 84 70 41 55 106 145 167 164 142 137 102 68 59 64 99 90 147 197 226 288 270 281 291 273 283 315 311 314 306 318
45 29 30 65 101 161 166 168 148 129 124 82 61 58 54 72 91 129 161 174 165 173 176 168 158 174 200 184 173 165 157 165

GFSFLT2_con_3kmhel_027.txt.gz
Helicity
26 42 55 52 42 40 39 42 45 44 50 50 50 58 58 59 68 72 72 73 73 75 76 72 70 67 61 54 40 22 12 13
46 49 46 37 43 37 42 39 31 35 38 32 33 38 40 40 50 75 66 63 60 59 57 55 53 52 48 33 12 -11 -10 46
44 48 36 31 36 42 26 29 20 25 32 23 10 19 36 37 102 79 64 57 50 47 46 43 36 33 36 33 14 3 64 32
45 36 37 20 16 23 33 45 38 43 48 39 35 57 79 66 83 68 49 44 49 45 48 34 18 21 52 17 26 92 48 73
48 35 20 -5 21 5 19 23 36 52 41 50 80 47 63 43 67 68 40 35 21 39 47 39 110 83 95 95 76 62 57 80
33 28 20 3 -11 -5 2 7 33 30 79 51 42 36 67 55 54 55 43 56 86 47 69 79 54 59 64 71 69 71 70 89
34 31 20 19 10 5 3 5 28 44 42 69 50 45 60 45 50 36 44 43 44 52 60 62 74 61 58 60 56 60 65 92
30 34 30 32 13 26 23 39 49 52 63 85 63 47 53 36 34 36 29 31 39 54 57 62 67 75 80 73 69 69 65 80
36 47 56 51 42 43 47 75 65 68 73 77 70 46 41 36 37 45 34 37 39 25 39 44 49 52 54 67 73 67 73 107
37 53 61 62 70 77 82 87 71 64 69 72 82 59 57 56 50 49 44 49 29 29 40 55 64 67 76 74 88 99 84 99
30 43 60 68 101 84 115 92 52 64 90 72 101 86 82 83 72 55 63 59 58 64 76 101 102 98 83 97 111 112 125 121
73 70 106 120 151 116 94 81 65 80 83 112 175 120 146 108 81 64 71 75 79 86 103 99 113 114 93 113 137 170 190 174
141 140 230 140 140 169 152 138 160 132 143 236 151 151 143 112 100 94 88 93 118 124 114 106 125 121 130 133 144 120 166 193
119 147 164 166 199 210 153 134 144 149 112 238 160 178 100 82 114 88 89 128 139 113 115 129 128 126 126 130 138 152 187 231
163 181 180 188 179 169 151 110 130 157 192 111 92 147 118 167 173 125 134 129 114 111 114 117 138 137 139 152 165 170 158 121
170 187 181 154 141 149 118 111 133 154 106 168 212 130 146 148 118 123 115 102 73 70 84 161 184 175 175 182 188 190 186 171
167 161 139 125 110 105 106 109 110 81 119 178 108 139 151 119 111 113 108 68 73 113 126 124 179 206 203 265 307 322 315 288
106 85 84 90 86 84 78 67 77 80 99 127 158 146 125 117 121 109 99 61 92 148 265 294 245 216 247 287 305 260 321 316
92 93 89 93 77 63 84 80 106 128 162 177 144 119 105 88 88 63 78 176 215 243 216 223 208 195 217 241 255 254 233 222
58 57 67 102 132 151 154 168 189 177 169 153 126 99 91 76 91 199 270 366 334 254 197 162 112 125 120 122 128 130 139 142

GFSFLT2_con_3kmhel_030.txt.gz
Helicity
27 42 61 73 59 29 28 39 40 39 38 37 40 44 49 52 64 68 69 72 73 72 66 56 45 37 29 20 10 0 8 42
37 61 45 31 3 29 37 35 31 35 30 23 22 20 19 42 43 62 59 58 58 57 54 45 35 30 25 23 16 7 26 71
32 107 60 57 35 14 24 26 17 18 15 22 42 14 26 42 61 52 41 25 27 35 29 31 25 17 1 -1 25 56 65 35
85 57 66 13 46 40 12 21 21 13 18 48 47 62 72 62 101 88 52 30 27 25 -8 9 41 65 97 19 40 57 51 50
101 90 31 7 32 7 34 52 53 66 43 40 84 52 63 58 98 93 63 64 50 48 51 44 40 65 56 87 85 79 71 68
137 53 40 15 5 11 16 11 53 29 112 78 64 54 78 72 62 57 63 65 47 56 49 58 81 73 41 59 63 71 67 68
131 77 37 44 16 23 22 32 53 68 79 120 96 57 76 61 57 44 38 34 37 62 84 66 63 76 99 106 98 74 66 78
89 103 69 51 25 57 40 44 60 41 94 135 90 78 93 65 77 64 46 62 80 84 78 48 45 68 69 84 124 134 85 57
100 140 123 75 55 60 51 115 93 86 116 117 112 113 105 87 74 87 73 83 82 69 69 91 89 91 107 121 141 166 162 93
77 97 149 101 41 127 97 151 128 99 109 131 127 136 100 99 93 97 98 109 107 100 105 86 94 113 129 131 132 158 184 182
74 90 140 143 76 100 166 158 107 66 168 99 220 270 201 196 160 148 135 131 110 92 92 96 108 111 123 135 144 174 195 199
140 158 186 210 269 220 130 112 71 90 136 211 274 223 235 194 123 113 80 124 139 137 129 132 141 144 131 128 135 138 151 200
251 283 242 263 208 207 239 306 306 258 240 227 231 219 192 164 146 203 228 192 209 200 172 149 153 158 143 144 146 133 144 163
208 190 188 201 224 191 158 177 169 139 119 143 139 192 251 195 168 187 203 184 162 148 147 159 161 140 151 132 161 120 113 122
105 109 143 175 213 219 193 152 153 168 198 204 207 242 228 198 247 220 189 173 158 141 114 114 139 134 136 147 146 161 126 144
125 146 164 144 141 172 168 132 151 153 150 198 226 210 236 282 223 205 194 163 153 109 93 110 138 152 156 262 300 259 151 104
101 118 115 113 83 77 76 110 129 125 136 171 194 243 239 211 186 145 126 102 91 139 223 205 200 212 226 188 176 175 174 217
87 114 146 135 113 77 65 97 90 111 107 161 173 173 158 137 126 112 141 221 220 196 226 229 216 224 214 209 203 139 121 149
72 94 92 111 149 172 205 219 207 169 163 153 175 136 92 94 116 193 185 187 204 229 232 240 210 174 123 116 124 127 112 95
136 139 123 130 164 183 256 242 155 152 139 160 142 144 145 267 192 167 191 207 207 196 167 158 141 119 90 61 79 75 86 87

GFSFLT2_con_3kmhel_033.txt.gz
Helicity
16 16 39 49 36 31 26 32 34 32 40 42 41 47 46 42 44 51 56 54 48 47 41 34 27 19 10 6 8 21 35 95
-23 1 13 6 -7 10 13 22 23 20 22 20 20 32 37 34 41 35 40 31 41 39 31 23 28 24 13 12 25 38 41 74
-43 2 -13 3 -25 -29 0 6 2 -14 1 12 24 14 5 42 39 43 19 22 22 12 9 -8 20 32 34 35 46 85 60 66
30 18 -11 23 7 -10 11 -10 -23 -38 -15 17 7 28 45 50 71 62 27 41 31 -1 -12 0 16 43 48 35 61 62 57 63
121 67 60 34 46 40 37 -12 -31 -30 -15 13 47 66 67 76 83 52 44 44 39 26 29 42 45 60 72 72 61 54 47 51
172 98 57 32 52 37 31 32 6 26 65 95 90 102 88 106 73 52 59 51 57 46 56 46 47 56 79 72 64 70 60 68
192 107 55 33 51 41 67 107 97 93 109 125 111 118 105 105 91 79 59 57 53 64 73 68 60 47 66 76 91 102 96 98
174 150 91 57 50 53 41 85 89 114 151 139 124 142 128 109 90 73 64 75 76 81 80 71 76 75 71 64 74 105 138 131
208 248 229 119 102 66 63 74 100 137 136 154 146 161 153 122 116 121 118 113 100 91 81 82 78 83 85 87 102 109 152 171
219 228 259 96 71 103 118 147 130 112 144 162 163 178 151 149 148 109 103 133 136 147 114 101 109 96 93 78 107 133 147 175
270 197 165 224 15 120 171 183 123 107 142 246 288 324 240 172 135 143 162 140 142 138 148 149 141 118 95 91 123 129 121 137
308 302 305 212 220 214 208 199 217 190 211 256 253 225 198 224 212 215 162 155 164 172 189 168 150 112 100 112 118 124 118 119
266 365 307 293 275 237 222 245 230 219 182 117 157 203 284 228 218 191 195 190 182 169 134 122 132 122 126 124 138 128 130 125
187 184 179 189 236 216 223 217 195 217 257 281 279 279 292 303 315 307 289 234 186 152 125 118 108 103 109 113 112 88 87 112
145 101 108 148 199 206 185 157 170 200 199 198 224 260 289 314 335 297 244 188 158 133 100 121 95 72 150 136 125 120 121 72
117 74 69 88 109 133 141 133 136 119 126 144 185 223 237 228 209 184 157 128 128 132 158 116 107 100 80 181 149 137 80 47
75 112 94 68 67 71 77 83 70 67 96 160 185 185 177 149 123 82 95 99 104 108 122 135 132 128 127 107 120 118 148 161
66 101 136 166 182 185 193 204 192 180 156 164 150 122 111 118 79 48 47 71 96 104 124 144 131 144 147 137 129 99 118 103
129 147 121 116 143 157 199 235 233 201 161 141 130 89 77 54 30 62 60 84 129 160 153 141 150 140 118 85 80 89 72 62
139 130 128 187 206 244 207 225 170 152 144 126 138 144 114 118 106 102 99 121 144 145 143 144 118 102 93 91 83 81 77 78

GFSFLT2_con_3kmhel_036.txt.gz
Helicity
-2 4 26 53 52 40 40 39 37 32 28 31 23 18 12 20 20 21 21 21 21 19 16 12 18 20 20 30 42 59 72 74
-15 -5 13 10 5 21 22 18 19 18 20 18 9 4 8 11 15 2 -4 -8 -16 -24 -24 -17 -6 -1 7 13 31 71 93 72
-22 -6 -1 -0 -19 -15 -8 -14 -6 -0 -1 2 5 -2 3 25 22 20 21 13 -5 -24 -30 -29 -24 -27 -18 -2 25 39 55 62
-33 -14 -20 -3 -3 -21 -25 -30 -29 -28 -13 1 1 2 14 24 13 14 33 35 14 -11 -18 -21 -13 13 15 10 29 34 40 34
-21 -8 -10 10 12 7 -8 -12 -27 -17 -18 2 25 28 29 44 33 34 45 32 35 23 15 21 14 26 40 49 43 54 63 53
-2 27 -1 -3 24 41 21 17 13 2 10 26 69 87 99 72 57 54 49 52 40 38 34 27 28 34 42 35 57 80 94 81
87 110 77 73 58 36 45 34 41 24 50 80 125 143 144 118 93 79 73 72 64 60 59 60 55 48 40 37 43 54 67 93
124 111 115 124 92 70 118 128 120 112 123 134 132 146 158 155 142 118 99 91 93 88 94 93 82 72 52 56 54 69 76 84
156 182 207 152 66 76 93 105 159 152 147 147 157 144 168 177 146 106 122 113 119 123 118 128 116 102 92 99 89 77 58 58
237 241 196 178 63 75 63 96 132 131 142 174 166 167 163 146 136 159 160 167 150 147 134 137 140 130 110 101 96 94 90 77
337 289 227 148 76 80 102 179 175 179 190 197 191 212 200 198 210 194 188 198 190 152 130 120 109 104 96 92 79 88 96 104
469 340 245 153 144 194 226 225 238 210 244 252 256 281 305 328 316 307 251 222 200 165 130 141 129 116 96 101 103 95 88 87
221 233 226 181 176 194 259 267 300 323 366 415 413 389 372 342 305 306 282 244 198 159 112 104 83 82 80 77 75 97 131 142
149 150 181 158 120 119 130 153 174 196 230 259 249 237 254 269 275 260 245 209 178 137 107 75 57 92 71 71 87 91 121 138
154 110 69 78 95 108 126 114 120 123 128 126 162 191 197 197 192 167 143 107 108 100 105 116 114 105 124 106 104 125 76 35
118 77 80 99 104 85 68 62 69 53 71 72 112 140 138 123 103 63 36 47 105 123 129 110 95 104 103 175 139 154 88 67
82 90 94 88 72 57 65 71 39 111 162 157 135 129 135 112 89 80 84 86 75 74 75 96 94 92 96 122 147 142 159 143
83 75 68 102 110 123 141 163 158 168 182 188 156 138 121 102 72 42 44 43 40 50 74 94 96 102 126 128 132 107 138 131
101 107 144 163 202 225 227 200 236 222 217 182 157 136 117 83 57 47 18 -4 26 78 105 113 111 126 105 113 101 95 76 76
154 216 250 270 276 270 255 252 229 213 184 158 170 127 85 64 65 74 53 48 70 88 93 91 82 90 86 83 89 59 69 92

GFSFLT2_con_3kmhel_042.txt.gz
Helicity
23 24 25 36 55 54 35 20 6 -0 -6 -2 -3 3 1 -1 -0 3 2 -1 -1 9 18 22 25 30 31 32 26 32 37 44
14 20 23 28 36 29 19 5 -9 -6 -9 -7 3 1 1 3 4 2 -2 -1 2 6 8 11 14 10 14 22 23 21 23 28
-1 6 13 33 18 -4 5 2 -4 -13 -15 -6 4 -2 4 7 3 -2 -2 1 8 5 -0 3 3 3 2 2 6 1 14 22
-20 2 14 2 -16 -10 -10 -16 -25 -27 -23 -9 3 9 15 15 15 8 11 14 25 20 18 18 21 18 12 11 4 6 9 13
-46 -19 -23 -24 -27 -25 -32 -23 -26 -18 -9 -3 14 25 29 29 37 41 43 45 56 59 55 51 53 42 29 24 19 14 20 22
-53 -54 -40 -49 -37 -16 -14 -8 -3 -3 -0 21 35 35 34 29 47 63 75 75 89 95 97 94 92 77 59 54 54 41 36 35
-44 -40 -69 -70 -57 -31 -6 -2 4 17 19 43 66 65 57 63 74 98 119 109 125 130 125 127 116 104 90 70 62 64 66 71
-2 -4 -17 -27 -23 -11 -18 -2 8 11 30 53 70 80 85 102 140 163 168 145 135 139 136 136 127 105 89 81 64 52 61 86
52 74 69 57 57 46 21 -1 16 48 55 95 118 127 144 152 170 185 173 188 207 188 166 146 139 108 91 74 58 44 57 94
194 182 169 194 172 100 40 56 88 126 151 168 180 178 180 200 209 203 209 195 186 158 117 119 133 115 103 72 57 51 85 113
371 303 296 256 273 30 62 137 180 185 179 177 186 190 214 212 209 241 199 179 115 129 109 116 134 124 114 98 108 113 132 148
470 407 379 263 193 230 207 174 161 124 125 114 118 117 126 168 165 141 172 185 172 165 152 152 134 123 128 132 145 137 173 224
343 309 251 197 119 75 85 65 46 76 84 90 96 104 125 134 140 149 151 156 151 145 102 96 86 101 60 65 30 45 126 158
115 83 65 30 22 15 32 30 51 55 40 65 92 115 116 116 136 158 162 133 120 99 94 77 65 82 81 70 138 161 163 170
9 -12 -10 9 42 50 50 61 67 72 68 64 64 95 103 107 127 142 141 109 102 76 83 96 91 75 116 107 160 181 146 138
-32 -26 -0 2 6 31 50 70 73 69 91 105 103 138 153 150 164 159 125 87 99 86 100 98 122 143 142 163 161 162 112 63
-16 23 41 43 57 67 67 65 82 91 123 140 139 167 187 184 170 138 115 106 98 83 59 50 61 66 81 96 112 124 117 99
-1 34 71 71 89 99 108 119 129 161 155 139 158 173 165 143 134 132 116 87 42 16 19 43 75 103 101 85 73 66 59 81
76 86 81 122 142 166 188 198 179 171 147 147 161 158 131 94 104 92 76 49 54 64 73 84 111 133 91 83 89 101 125 126
97 93 144 172 141 163 168 169 160 151 133 131 130 133 114 89 89 109 111 105 94 93 102 89 84 80 88 112 135 144 165 165

GFSFLT2_con_3kmhel_048.txt.gz
Helicity
8 6 11 34 56 54 47 28 22 22 21 19 17 20 19 28 34 44 41 44 49 44 38 30 26 26 26 19 5 -13 9 26
7 3 10 20 33 44 28 22 19 21 20 16 20 21 25 29 29 42 44 47 49 49 42 34 37 40 38 27 -5 -37 21 18
4 13 25 35 32 29 23 23 20 20 16 12 1 8 19 18 61 46 46 47 52 58 58 49 36 60 59 36 -0 47 27 33
17 34 50 36 28 20 15 16 4 4 3 1 1 13 22 28 45 41 47 46 59 59 59 43 31 61 73 44 61 54 40 33
41 60 58 44 33 18 10 5 -2 -0 5 6 22 22 23 28 36 37 43 53 51 59 60 71 87 78 90 79 75 53 72 58
50 54 43 39 29 23 16 11 9 12 18 18 24 24 36 41 42 37 42 56 65 67 77 87 93 102 105 102 94 88 94 65
24 19 22 29 32 28 25 21 20 25 16 22 31 37 46 50 64 57 67 62 73 90 109 105 103 103 111 102 90 95 75 52
12 19 26 26 36 42 33 36 37 22 12 36 65 79 92 101 109 104 112 109 129 142 132 131 127 98 106 121 79 91 93 82
45 56 42 58 79 90 83 98 48 5 20 55 85 63 74 78 70 114 147 146 134 145 149 142 122 126 118 117 96 101 89 107
98 136 170 170 197 235 181 138 61 12 15 43 41 71 68 57 81 119 115 146 155 146 149 151 152 141 134 117 111 94 100 102
151 189 264 321 412 350 205 67 8 66 -22 -13 21 47 69 77 104 124 125 135 158 154 159 142 137 139 142 132 125 116 111 130
177 244 275 235 179 261 18 -85 27 52 39 45 51 58 60 63 91 109 113 133 136 132 110 110 97 108 108 90 104 104 116 143
126 147 153 124 79 63 -7 -4 42 56 54 51 48 58 60 75 96 109 101 122 109 96 104 111 103 112 102 108 70 25 54 103
88 84 49 11 -5 14 25 32 52 69 77 88 88 87 95 103 123 128 126 116 108 104 96 93 87 113 92 93 145 169 106 210
49 42 19 16 42 52 61 61 77 70 93 102 136 135 137 137 142 149 143 123 132 119 122 110 124 113 136 126 177 235 308 192
36 16 24 43 53 88 97 76 100 155 163 179 189 161 147 145 148 148 142 135 126 119 130 128 130 146 143 142 168 181 217 261
70 99 112 144 116 88 105 138 151 171 179 158 130 108 109 124 137 140 137 138 150 150 135 132 127 158 155 156 155 157 137 177
117 132 118 107 125 136 166 176 165 143 114 89 117 121 135 142 132 132 128 133 127 135 138 118 107 89 98 75 87 114 90 116
101 125 145 155 168 180 168 169 142 97 99 139 128 150 148 130 124 110 116 130 130 121 107 73 46 51 42 64 115 107 106 98
119 145 178 186 199 170 144 148 124 113 150 137 140 128 123 132 125 118 116 102 87 96 90 71 66 79 79 95 101 99 68 63

GFSFLT2_con_3kmhel_054.txt.gz
Helicity
50 60 79 87 80 75 77 63 51 52 50 42 32 24 23 25 39 33 31 29 27 26 21 17 17 12 6 -2 -10 -3 46 20
49 32 50 72 54 71 69 62 48 43 46 28 16 5 -1 13 22 29 29 35 32 26 22 15 9 4 -9 -20 -3 44 13 23
-4 0 -27 -5 47 59 51 42 45 41 25 -2 -22 -18 -26 5 22 30 23 26 26 23 24 19 21 29 18 -14 46 75 36 70
17 21 11 -4 47 8 16 22 0 3 15 15 1 5 21 44 27 29 12 1 24 23 0 24 46 60 87 60 112 102 67 74
51 78 50 81 31 -1 17 -17 3 33 31 38 29 38 24 36 48 28 29 4 49 48 60 56 98 91 87 89 84 73 56 62
81 53 105 75 9 5 23 38 16 13 36 69 53 52 46 48 55 127 105 101 89 115 118 126 132 122 92 117 82 66 65 66
53 62 64 34 81 123 217 204 132 144 91 92 51 61 54 61 52 61 66 147 186 184 164 158 158 152 128 126 108 96 64 66
69 68 47 70 193 183 206 283 308 238 99 72 57 47 98 105 105 125 175 127 112 138 159 121 118 126 134 136 126 109 113 119
49 44 43 219 227 255 329 268 181 162 112 81 59 50 81 130 154 147 124 113 97 106 119 130 122 109 112 115 109 130 123 121
39 80 256 331 347 259 140 170 196 107 121 58 54 76 43 107 115 92 58 45 38 65 100 97 97 101 91 78 98 109 77 87
254 366 287 370 301 230 252 192 190 138 60 110 2 138 11 31 48 44 24 60 93 113 93 79 76 81 78 88 88 69 86 69
375 345 253 352 263 182 169 155 139 119 51 -50 -29 71 37 23 25 -2 -14 41 85 83 83 74 86 89 93 101 98 96 59 86
469 297 200 218 173 123 96 73 74 78 42 43 47 48 33 39 70 69 66 109 114 113 125 98 85 92 112 99 86 88 118 113
271 223 184 123 47 32 65 89 70 91 137 120 125 84 57 59 49 85 165 161 133 189 182 144 143 165 143 130 124 98 89 157
206 177 79 6 20 126 108 103 156 176 156 102 111 79 97 109 124 160 185 180 171 164 159 180 178 133 137 166 169 183 161 152
56 57 20 41 148 119 170 116 122 160 178 133 158 98 121 144 153 161 144 118 121 135 166 189 170 164 179 158 163 191 214 181
39 69 123 171 124 168 89 132 177 233 271 290 237 148 127 116 125 97 154 161 149 169 179 275 230 212 210 208 190 161 130 198
142 172 240 182 159 200 166 224 324 344 270 252 157 222 170 179 197 276 296 254 218 205 213 206 186 172 185 181 209 194 147 140
164 196 195 167 187 214 266 309 301 250 233 236 256 224 188 204 238 247 223 182 154 145 163 241 196 167 183 190 157 147 164 196
95 159 193 200 229 281 291 264 293 276 224 288 214 182 175 185 198 203 184 162 150 140 161 195 224 155 134 134 140 153 161 182

GFSFLT2_con_3kmhel_057.txt.gz
Helicity
18 44 73 94 89 74 74 65 45 38 38 27 23 25 14 12 18 17 22 22 21 26 31 25 22 26 26 43 65 43 1 44
-20 43 74 88 69 58 47 48 34 30 14 11 16 16 10 8 13 19 25 25 25 25 21 24 41 48 27 57 83 27 21 83
-8 28 34 66 48 48 55 47 24 24 12 12 33 6 -7 -0 6 16 4 18 26 15 7 44 59 53 52 35 59 57 51 55
-63 34 48 16 -14 -9 31 12 7 16 6 6 -6 2 -10 16 22 26 22 17 17 -0 21 34 30 34 67 80 74 43 46 49
-29 -32 -26 24 20 21 12 -6 -9 -1 37 51 25 25 18 44 37 53 46 62 65 82 122 113 108 131 120 103 79 68 48 55
18 13 23 7 -4 6 -17 -2 29 100 121 102 63 90 69 63 88 113 114 150 179 154 152 148 154 163 172 141 126 101 76 77
83 78 40 77 133 141 190 244 263 213 154 120 77 69 89 103 138 121 118 135 141 138 120 133 154 144 153 177 175 164 175 146
54 58 103 186 224 265 286 251 201 183 149 120 130 127 120 116 115 134 134 102 104 116 123 142 148 128 122 112 122 157 160 121
23 38 148 207 221 207 195 190 190 160 163 137 141 124 101 86 105 142 133 109 110 120 111 111 107 108 112 111 150 124 88 93
28 124 165 206 173 175 185 196 212 169 206 137 145 73 43 92 123 123 116 116 107 86 67 62 76 89 85 101 85 82 85 71
192 241 213 223 198 186 218 226 206 151 124 64 62 -13 3 67 120 91 75 64 76 55 59 56 59 86 85 85 91 98 91 85
317 295 293 273 259 231 206 163 106 76 49 31 51 65 75 -10 46 -0 46 61 41 38 55 75 66 70 65 63 54 65 80 84
422 370 297 315 254 210 155 109 75 53 70 98 102 85 95 86 83 90 63 61 60 62 68 70 51 47 50 25 28 77 83 161
394 345 212 187 178 117 100 101 81 101 84 121 138 112 109 79 73 62 67 77 100 105 93 89 82 77 59 61 50 41 112 97
338 245 151 115 85 86 116 142 153 153 143 157 145 136 102 67 47 49 81 103 117 101 92 104 96 86 105 114 122 143 116 115
186 83 63 64 74 111 172 130 169 146 159 135 135 101 65 86 75 103 126 120 93 72 88 121 154 148 159 156 168 192 185 198
112 69 91 63 5 167 159 144 220 273 301 245 220 191 193 164 148 136 140 154 168 169 167 180 186 192 189 183 208 239 225 235
78 63 104 197 240 236 236 310 358 411 369 322 274 280 321 323 308 307 268 252 236 205 174 168 190 211 184 187 222 260 245 265
174 261 278 282 348 367 364 395 387 370 353 321 291 223 310 255 276 247 218 197 186 178 165 153 174 233 231 201 195 219 218 219
289 300 310 298 316 345 360 390 361 318 280 374 332 218 243 255 223 195 183 177 164 157 142 137 153 209 228 203 223 183 178 178

GFSFLT2_con_3kmhel_060.txt.gz
Helicity
183 95 50 -12 47 47 37 43 42 32 24 20 6 10 16 8 11 10 18 29 31 37 75 85 91 95 82 86 87 54 58 52
3 40 41 30 42 29 36 46 20 4 2 13 12 15 21 26 17 28 37 39 42 54 57 72 74 70 57 60 85 63 39 58
77 27 -11 30 30 12 31 41 4 5 43 31 27 23 39 36 47 62 66 58 45 60 47 68 72 85 84 76 68 33 22 46
-15 -86 -15 -13 -6 -4 10 22 -7 27 18 26 63 58 62 70 88 89 86 74 82 50 64 110 104 87 91 97 74 64 67 55
-127 -46 -25 -10 17 39 51 44 44 55 74 59 51 37 61 67 85 97 56 66 93 117 168 159 161 163 158 157 140 126 120 112
-5 -1 -28 12 51 47 42 90 109 100 78 64 58 94 99 89 107 120 122 129 157 155 158 163 179 161 158 173 172 159 157 158
0 -17 -34 -3 70 105 115 121 126 105 97 95 83 96 122 125 134 144 137 149 176 154 142 139 140 135 134 150 160 165 150 136
1 -32 -3 100 95 104 86 112 114 132 128 124 135 140 157 154 141 139 155 158 150 122 103 99 103 101 122 142 154 146 135 128
72 127 136 139 125 132 118 129 149 151 128 138 150 136 138 135 126 135 141 127 118 105 109 103 100 102 121 128 124 130 136 141
123 112 118 156 156 171 171 167 181 176 160 149 168 164 132 152 105 83 112 145 114 91 77 84 88 81 64 91 108 100 120 132
149 127 150 182 193 206 198 197 202 181 148 150 162 135 146 142 111 127 162 157 111 69 80 48 33 12 30 62 49 78 118 149
156 148 178 199 232 243 229 222 205 140 120 137 156 136 135 148 150 133 95 82 63 54 21 16 -19 3 9 25 -14 16 72 121
160 209 205 249 259 248 228 198 138 102 91 141 139 111 134 131 93 62 48 57 38 7 21 14 18 13 12 21 -5 48 55 72
208 212 231 233 233 218 199 155 87 82 106 115 125 156 146 113 69 73 53 35 33 68 56 57 48 54 52 40 58 46 39 24
275 235 228 191 190 249 211 189 177 164 153 154 136 131 121 105 47 22 16 10 41 59 72 75 78 52 45 68 76 83 87 43
283 247 165 152 225 181 145 166 188 122 136 140 141 123 100 69 20 64 66 61 118 99 83 78 86 80 98 106 132 151 127 117
224 139 154 149 107 83 133 155 139 157 166 177 143 141 171 200 198 202 186 192 174 162 145 127 130 143 154 152 163 171 182 187
169 140 60 65 80 128 148 204 212 255 261 256 288 352 273 303 328 209 236 222 219 197 174 154 145 164 186 200 219 213 200 209
142 144 129 121 174 172 239 335 338 378 355 390 349 366 385 491 382 198 235 223 201 178 169 171 168 172 189 206 218 221 218 211
177 190 249 271 331 369 430 452 447 402 443 402 316 274 246 260 139 204 158 145 151 165 150 141 139 149 152 173 189 174 208 198